www.pogodaiklimat.ru

Погода и климат >> Архив погоды >> Италия >> Лорето


ПОГОДА в Лорето

  • Прогноз погоды в Лорето
  • Монитор погоды в Лорето

АРХИВ ПОГОДЫ в Лорето

Время (UTC), дата Ветер
(напр.,м/с)
 
Видим.   Явления Облачность Т
(С)
Тd
(С)
f
(%)
Тe
(С)
Тes
(С)
Комфортность P
(гПа)
Po
(гПа)
Тmin
(С)
Tmax
(С)
R
(мм)
R24
(мм)
S
(см)
00 13.08 З 5 н/о н/о +26.3 +20.8 72 +33 +33 очень
душно
1011.2 988.3
01 13.08 З 5 н/о н/о +25.7 +21.9 80 +33 +33 очень
душно
1010.7 987.8
02 13.08 З 1 н/о н/о +25.9 +22.9 84 +35 +35 очень
душно
1010.0 987.1
03 13.08 З 4 н/о н/о +25.0 +23.0 89 +33 +33 очень
душно
1009.9 987.0
04 13.08 З 5 н/о н/о +25.3 +22.9 87 +34 +34 очень
душно
1010.2 987.3 +24.5
05 13.08 З 5 н/о н/о +25.7 +22.1 81 +33 +33 очень
душно
1010.2 987.3
07 13.08 З 4 н/о н/о +27.0 +21.0 70 +34 +34 очень
душно
1010.6 987.8
08 13.08 З 3 н/о н/о +28.1 +21.3 67 +36 +36 очень
душно
1010.6 987.9
09 13.08 З 3 н/о н/о +31.2 +23.0 62 +41 +41 опасность
перегрева
1010.6 988.1
10 13.08 ЮЗ 5 н/о н/о +30.9 +21.9 59 +40 +40 очень
душно
1010.4 987.9
11 13.08 З 6 н/о н/о +31.2 +22.2 59 +40 +40 очень
душно
1010.1 987.6
12 13.08 З 5 н/о н/о +31.8 +22.2 57 +41 +41 опасность
перегрева
1009.8 987.4
13 13.08 З 5 н/о н/о +31.8 +19.7 49 +38 +38 очень
душно
1009.3 986.9
14 13.08 З 2 н/о н/о +28.9 +20.0 59 +35 +35 очень
душно
1009.9 987.2
15 13.08 З 3 н/о н/о +27.8 +19.0 59 +33 +33 очень
душно
1009.2 986.5
16 13.08 З 3 н/о н/о +29.6 +17.7 49 +34 +34 очень
душно
1008.6 986.0 +32.6 0.4
17 13.08 З 2 н/о н/о +27.2 +21.4 71 +35 +35 очень
душно
1008.4 985.7
18 13.08 З 4 н/о н/о +26.2 +21.8 77 +34 +34 очень
душно
1008.8 986.0
19 13.08 ЮЗ 3 н/о н/о +26.6 +19.7 66 +32 +32 очень
душно
1008.0 985.2
20 13.08 Ю 4 н/о н/о +26.5 +18.6 62 +31 +31 душно 1007.8 985.0
21 13.08 ЮЗ 3 н/о н/о +26.2 +18.0 61 +31 +31 очень
душно
1007.5 984.7
00 14.08 З 7 н/о н/о +23.5 +22.9 96 +31 +31 очень
душно
1008.4 985.4
01 14.08 З 4 н/о н/о +23.3 +22.6 96 +32 +32 очень
душно
1008.7 985.7
02 14.08 З 4 н/о н/о +23.3 +21.7 91 +32 +32 очень
душно
1008.7 985.7
03 14.08 З 4 н/о н/о +22.8 +21.6 93 +30 +30 очень
душно
1008.7 985.7
04 14.08 З 4 н/о н/о +22.2 +21.8 98 +29 +29 очень
душно
1009.1 986.0 +22.1 1
05 14.08 З 4 н/о н/о +22.7 +21.1 91 +30 +30 очень
душно
1009.8 986.7
06 14.08 З 4 н/о н/о +21.6 +20.4 93 +27 +27 душно 1010.7 987.5 609
07 14.08 З 5 н/о н/о +22.6 +21.4 93 +30 +30 очень
душно
1011.1 988.0
08 14.08 З 5 н/о н/о +23.7 +20.2 81 +29 +29 душно 1011.7 988.6
09 14.08 З 6 н/о н/о +24.4 +20.5 79 +30 +30 очень
душно
1011.6 988.6
10 14.08 З 4 н/о н/о +25.6 +19.2 68 +31 +31 очень
душно
1011.6 988.7
11 14.08 ЮЗ 6 н/о н/о +25.9 +19.7 69 +32 +32 очень
душно
1011.9 989.0
12 14.08 ЮЗ 7 н/о н/о +26.1 +18.2 62 +31 +31 очень
душно
1011.9 989.0
13 14.08 З 7 н/о н/о +26.2 +19.0 65 +31 +31 очень
душно
1012.0 989.1
14 14.08 З 8 н/о н/о +25.2 +18.3 66 +30 +30 душно 1012.1 989.1
15 14.08 З 7 н/о н/о +24.5 +18.1 68 +29 +29 душно 1012.6 989.6
16 14.08 З 6 н/о н/о +24.5 +17.9 67 +29 +29 душно 1012.6 989.6 +27.7
17 14.08 З 6 н/о н/о +24.4 +15.5 58 +27 +27 жарко 1012.7 989.7
18 14.08 ЮЗ 4 н/о н/о +23.9 +15.3 59 +27 +27 жарко 1013.5 990.4
19 14.08 З 5 н/о н/о +22.6 +14.9 62 +26 +26 жарко 1013.9 990.7
20 14.08 З 5 н/о н/о +21.6 +15.1 67 +25 +25 комфорт 1014.4 991.1
21 14.08 З 5 н/о н/о +20.6 +15.3 72 +23 +23 комфорт 1014.8 991.4
00 15.08 З 6 н/о н/о +19.4 +15.2 77 +21 +21 комфорт 1015.1 991.6
01 15.08 З 6 н/о н/о +19.3 +15.3 78 +21 +21 комфорт 1015.0 991.5
02 15.08 З 6 н/о н/о +18.8 +15.2 80 +19 +19 1014.7 991.2
03 15.08 З 4 н/о н/о +18.9 +15.1 79 +20 +20 1015.0 991.5
04 15.08 З 5 н/о н/о +18.7 +15.1 80 +19 +19 1015.1 991.6 +18.6
05 15.08 З 5 н/о н/о +18.9 +15.3 80 +20 +20 1015.4 991.9
06 15.08 З 5 н/о н/о +19.3 +15.5 79 +21 +21 комфорт 1015.7 992.2
07 15.08 З 4 н/о н/о +20.5 +16.5 78 +24 +24 комфорт 1015.5 992.1
08 15.08 З 3 н/о н/о +22.7 +17.5 72 +28 +28 душно 1015.4 992.2
09 15.08 З 3 н/о н/о +24.2 +16.9 64 +28 +28 душно 1015.3 992.2
10 15.08 З 4 н/о н/о +25.1 +15.6 56 +28 +28 жарко 1015.0 992.0
11 15.08 З 2 н/о н/о +26.3 +15.3 51 +29 +29 жарко 1014.7 991.8
12 15.08 З 6 н/о н/о +26.0 +15.9 54 +29 +29 душно 1014.2 991.3
13 15.08 З 7 н/о н/о +26.0 +14.7 50 +29 +29 душно 1014.0 991.0
14 15.08 З 8 н/о н/о +25.5 +14.8 52 +28 +28 жарко 1013.9 990.9
15 15.08 З 7 н/о н/о +24.8 +15.6 57 +28 +28 жарко 1013.5 990.5
16 15.08 З 6 н/о н/о +24.5 +14.2 53 +27 +27 жарко 1013.6 990.5 +27.5
17 15.08 З 5 н/о н/о +24.0 +13.2 51 +26 +26 жарко 1013.5 990.4
18 15.08 З 4 н/о н/о +23.5 +13.0 52 +26 +26 жарко 1013.6 990.5
19 15.08 З 2 н/о н/о +23.0 +13.7 56 +26 +26 жарко 1014.1 990.9
20 15.08 Ю 3 н/о н/о +22.6 +13.8 58 +26 +26 жарко 1014.2 991.0
21 15.08 ЮЗ 4 н/о н/о +22.8 +14.0 58 +26 +26 жарко 1014.0 990.8
00 16.08 ЮЗ 2 н/о н/о +22.3 +13.8 59 +25 +25 комфорт 1013.6 990.4
01 16.08 Ю 2 н/о н/о +21.9 +14.0 61 +25 +25 комфорт 1013.6 990.4
02 16.08 Ю 2 н/о н/о +21.8 +15.3 67 +25 +25 комфорт 1013.6 990.4
03 16.08 ЮЗ 4 н/о н/о +20.9 +14.9 69 +24 +24 комфорт 1014.0 990.7
04 16.08 ЮЗ 5 н/о н/о +20.6 +15.3 72 +23 +23 комфорт 1014.1 990.8 +19.9
05 16.08 З 5 н/о н/о +19.2 +13.9 71 +20 +20 1014.7 991.2
06 16.08 З 5 н/о н/о +19.6 +14.5 72 +21 +21 комфорт 1015.0 991.5
07 16.08 З 4 н/о н/о +20.4 +16.4 78 +24 +24 комфорт 1015.4 992.0
08 16.08 З 4 н/о н/о +23.7 +17.8 70 +28 +28 душно 1015.3 992.2
09 16.08 З 5 н/о н/о +24.1 +17.5 67 +28 +28 душно 1015.5 992.4
10 16.08 З 6 н/о н/о +25.2 +17.3 62 +29 +29 душно 1015.2 992.2
11 16.08 З 7 н/о н/о +25.9 +16.4 56 +29 +29 душно 1015.3 992.3
12 16.08 ЮЗ 7 н/о н/о +25.8 +17.1 59 +30 +30 душно 1015.2 992.3
13 16.08 З 7 н/о н/о +25.9 +15.5 53 +29 +29 душно 1015.0 992.0
14 16.08 ЮЗ 7 н/о н/о +26.1 +13.8 47 +28 +28 жарко 1014.6 991.7
15 16.08 З 7 н/о н/о +25.9 +14.0 48 +28 +28 жарко 1014.6 991.7
16 16.08 ЮЗ 6 н/о н/о +25.6 +13.4 47 +28 +28 жарко 1014.9 991.9 +26.6
17 16.08 З 4 н/о н/о +24.8 +12.7 47 +27 +27 жарко 1015.1 992.0
18 16.08 З 3 н/о н/о +23.6 +12.5 50 +26 +26 жарко 1015.1 991.9
19 16.08 З 3 н/о н/о +22.8 +13.8 57 +26 +26 жарко 1015.8 992.6
20 16.08 З 4 н/о н/о +22.3 +13.8 59 +25 +25 комфорт 1016.5 993.2
21 16.08 З 3 н/о н/о +22.0 +14.5 62 +25 +25 комфорт 1016.6 993.3
00 17.08 З 4 н/о н/о +20.8 +13.9 65 +24 +24 комфорт 1016.6 993.2
01 17.08 З 4 н/о н/о +20.7 +14.0 65 +23 +23 комфорт 1016.4 993.0
02 17.08 З 5 н/о н/о +20.5 +14.1 67 +23 +23 комфорт 1016.3 992.9
03 17.08 З 4 н/о н/о +20.5 +14.1 67 +23 +23 комфорт 1016.1 992.7
04 17.08 З 3 н/о н/о +21.0 +14.6 67 +24 +24 комфорт 1015.9 992.5 +20.3
05 17.08 З 4 н/о н/о +20.8 +14.1 65 +24 +24 комфорт 1016.2 992.8
06 17.08 З 3 н/о н/о +21.3 +14.8 66 +24 +24 комфорт 1016.6 993.2
07 17.08 З 3 н/о н/о +21.8 +14.4 63 +25 +25 комфорт 1017.1 993.8
08 17.08 З 1 н/о н/о +24.6 +18.0 67 +29 +29 душно 1017.0 993.9
09 17.08 З 2 н/о н/о +26.1 +16.6 56 +30 +30 душно 1016.9 993.9
10 17.08 З 3 н/о н/о +26.2 +16.9 57 +30 +30 душно 1016.7 993.7
11 17.08 З 3 н/о н/о +26.1 +17.1 58 +30 +30 душно 1016.7 993.7
12 17.08 З 4 н/о н/о +25.6 +17.7 62 +30 +30 душно 1016.3 993.3
13 17.08 З 4 н/о н/о +25.9 +17.2 59 +30 +30 душно 1016.1 993.1
14 17.08 З 4 н/о н/о +26.0 +16.5 56 +30 +30 душно 1016.1 993.1
15 17.08 З 4 н/о н/о +25.6 +14.0 49 +28 +28 жарко 1015.8 992.8
16 17.08 ЮЗ 3 н/о н/о +25.3 +15.0 53 +28 +28 жарко 1015.6 992.6 +26.9
17 17.08 ЮЗ 4 н/о н/о +24.5 +15.9 59 +28 +28 душно 1015.6 992.5
18 17.08 Ю 4 н/о н/о +24.3 +15.2 57 +27 +27 жарко 1015.4 992.3
19 17.08 Ю 5 н/о н/о +23.6 +16.8 66 +27 +27 жарко 1015.6 992.4
20 17.08 Ю 4 н/о н/о +23.4 +17.1 68 +29 +29 душно 1015.7 992.5
21 17.08 Ю 3 н/о н/о +23.6 +16.8 66 +27 +27 жарко 1015.6 992.4
00 18.08 ЮЗ 2 н/о н/о +24.0 +14.9 57 +27 +27 жарко 1015.2 992.1
01 18.08 ЮЗ 1 н/о н/о +22.8 +15.3 63 +27 +27 душно 1015.3 992.1
02 18.08 ЮЗ 2 н/о н/о +23.0 +15.7 63 +27 +27 душно 1015.2 992.0
03 18.08 З 4 н/о н/о +23.7 +15.1 59 +27 +27 жарко 1014.8 991.7
04 18.08 З 4 н/о н/о +24.5 +15.3 57 +27 +27 жарко 1014.9 991.8 +22.6
05 18.08 З 4 н/о н/о +23.5 +18.1 72 +28 +28 душно 1015.1 991.9
06 18.08 З 2 н/о н/о +24.4 +19.6 75 +30 +30 очень
душно
1015.3 992.2 703
07 18.08 З 1 н/о н/о +25.9 +19.9 70 +32 +32 очень
душно
1015.3 992.3
08 18.08 З 1 н/о н/о +27.5 +18.7 59 +33 +33 очень
душно
1015.5 992.6
09 18.08 ЮЗ 2 н/о н/о +27.9 +18.0 55 +32 +32 душно 1015.4 992.6
10 18.08 З 4 н/о н/о +27.5 +17.9 56 +32 +32 очень
душно
1015.3 992.5
11 18.08 З 5 н/о н/о +27.5 +17.9 56 +32 +32 очень
душно
1015.2 992.4
12 18.08 З 5 н/о н/о +27.5 +20.0 64 +34 +34 очень
душно
1015.2 992.3
13 18.08 ЮЗ 6 н/о н/о +27.4 +18.3 58 +32 +32 очень
душно
1015.1 992.2
14 18.08 ЮЗ 6 н/о н/о +27.1 +19.4 63 +33 +33 очень
душно
1015.0 992.1
15 18.08 ЮЗ 5 н/о н/о +26.9 +17.6 57 +31 +31 душно 1014.9 992.0
16 18.08 ЮЗ 6 н/о н/о +26.5 +17.8 59 +31 +31 душно 1014.9 992.0 +29.3
17 18.08 Ю 4 н/о н/о +26.4 +16.9 56 +30 +30 душно 1014.6 991.7
18 18.08 Ю 4 н/о н/о +25.6 +16.9 59 +29 +29 душно 1014.6 991.6
19 18.08 Ю 5 н/о н/о +25.2 +17.8 64 +30 +30 душно 1014.7 991.7
20 18.08 Ю 5 н/о н/о +25.2 +17.8 64 +30 +30 душно 1015.1 992.1
21 18.08 ЮЗ 5 н/о н/о +25.6 +15.5 54 +29 +29 душно 1015.1 992.1
00 19.08 ЮЗ 3 н/о н/о +25.0 +14.7 53 +28 +28 жарко 1014.9 991.9
01 19.08 ЮЗ 4 н/о н/о +25.2 +14.9 53 +28 +28 жарко 1014.7 991.7
02 19.08 З 3 н/о н/о +25.9 +15.8 54 +29 +29 душно 1014.7 991.8
03 19.08 З 2 н/о н/о +26.1 +16.0 54 +29 +29 жарко 1014.7 991.7
04 19.08 З 2 н/о н/о +26.1 +16.0 54 +29 +29 жарко 1015.0 992.0 +24.7
05 19.08 штиль 0 н/о н/о +25.7 +15.6 54 +29 +29 душно 1015.1 992.1
06 19.08 З 1 н/о н/о +27.4 +16.9 53 +31 +31 душно 1015.2 992.3
07 19.08 З 1 н/о н/о +28.0 +15.9 48 +31 +31 душно 1015.2 992.4
08 19.08 З 1 н/о н/о +28.8 +16.3 47 +32 +32 душно 1015.3 992.6
09 19.08 ЮЗ 3 н/о н/о +29.5 +16.6 46 +33 +33 душно 1015.5 992.8
10 19.08 З 4 н/о н/о +29.3 +16.8 47 +33 +33 душно 1015.7 993.0
11 19.08 ЮЗ 5 н/о н/о +29.5 +17.9 50 +34 +34 очень
душно
1015.8 993.0
12 19.08 ЮЗ 4 н/о н/о +29.5 +18.3 51 +34 +34 очень
душно
1015.8 993.1
13 19.08 ЮЗ 5 н/о н/о +29.2 +17.3 49 +33 +33 очень
душно
1015.8 993.1
14 19.08 ЮЗ 5 н/о н/о +29.0 +17.2 49 +33 +33 очень
душно
1015.9 993.1
15 19.08 ЮЗ 6 н/о н/о +27.8 +19.0 59 +33 +33 очень
душно
1015.6 992.8
16 19.08 ЮЗ 4 н/о н/о +27.7 +20.5 65 +34 +34 очень
душно
1015.6 992.8 +30.4
17 19.08 Ю 4 н/о н/о +27.4 +18.6 59 +32 +32 очень
душно
1015.7 992.8
18 19.08 Ю 4 н/о н/о +26.5 +19.3 65 +32 +32 очень
душно
1015.7 992.8
19 19.08 Ю 5 н/о н/о +27.2 +16.1 51 +31 +31 душно 1015.7 992.8
20 19.08 Ю 3 н/о н/о +27.6 +15.2 47 +30 +30 жарко 1016.2 993.3
21 19.08 Ю 3 н/о н/о +27.4 +15.0 47 +30 +30 жарко 1016.2 993.3

 

Местоположение метеостанции Лорето (Италия): широта 43.43 долгота 13.58 высота над уровнем моря 196 м.

В архиве по умолчанию представлена погода в Лорето за последнюю неделю. Архивные данные за месяц целиком и за предыдущие месяцы, начиная с января 2011 года, Вы можете получить, выбрав интересующий диапазон дат из раскрывающегося списка и нажав кнопку "Ввод!".


*Определитесь, кто Вы:
робот инопланетянин человек

Внимание! Время в таблицах - всемирное. Для получения местного времени необходимо прибавить поправку, которая равна 1 ч.

Смотрите также архив погоды в соседних городах и на ближайших метеорологических станциях:

Погода в Анконе (Италия) (22 км)
Погода во Фронтоне (Италия) (69 км)
Погода в Римини (Италия) (102 км)
Погода на Монте Терминилло (Италия) (117 км)
Погода в Червии (Италия) (135 км)
Погода в Ареццо (Италия) (140 км)
Погода в Мали-Лошине (Хорватия) (142 км)
Погода в Пунта Марина (Италия) (153 км)
Погода в Задаре (Хорватия) (153 км)
Погода в Задар аэропорту (Хорватия) (161 км)

Пояснения к столбцам:

Ветер - указаны скорость ветра в м/с - средняя за 10 мин, порывы в срок и между сроками (в фигурных скобках) и направление, откуда дует ветер: С - северный, СВ - северо-восточный, В - восточный, ЮВ - юго-восточный, Ю - южный, ЮЗ - юго-западный, З - западный, СЗ - северо-западный.
Видимость - горизонтальная дальность видимости в метрах или километрах. При видимости от 1 до 10 км при отсутствии осадков обычно наблюдается дымка, при ухудшении видимости до 1 км и менее - туман. В сухую погоду видимость может ухудшаться дымом, пылью или мглою.
Явления - указаны атмосферные явления, наблюдавшиеся в срок или в последний час перед сроком; фигурными скобками обозначены явления, наблюдавшиеся между сроками (за 1-3 часа до срока); квадратными скобками обозначены град или гололедные отложения с указанием их диаметра в мм.
Облачность - указаны через наклонную черту общая и нижняя облачность в баллах и высота нижней границы облаков в метрах; квадратными скобками обозначены формы облаков: Ci - перистые, Cs - перисто-слоистые, Cc - перисто-кучевые, Ac - высококучевые, As - высокослоистые, Sc - слоисто-кучевые, Ns - слоисто-дождевые, Cu - кучевые, Cb - кучево-дождевые. Подробнее классификацию облаков см. в Атласе облаков (PDF).
T - Температура воздуха - температура, измеренная на высоте 2 м над землей.
Td - Температура точки росы - температура, при понижении до которой содержащийся в воздухе водяной пар достигнет насыщения.
f - Относительная влажность воздуха - влажноcть воздуха, измеренная на высоте 2 м над землей.
Te - Эффективная температура - температура, которую ощущает одетый по сезону человек в тени. Характеристика душности погоды. При расчете учитывается влияние влажности воздуха и скорости ветра на теплоощущения человека.
Tes - Эффективная температура на солнце - температура, которую ощущает человек, с поправкой на солнечный нагрев. Характеристика знойности погоды. Зависит от высоты солнца над горизонтом, облачности и скорости ветра. Ночью, в пасмурную погоду, а также при ветре 12 м/с и более поправка равна нулю.
P - Атмосферное давление - приведенное к уровню моря атмосферное давление.
Po - Атмосферное давление - измеренное на уровне метеостанции атмосферное давление.
Tmin - Минимальная температура - минимум температуры воздуха на высоте 2 м над землей.
Tmax - Максимальная температура - максимум температуры воздуха на высоте 2 м над землей.
R - Количество осадков - Количество выпавших осадков за период времени, мм. При наведении курсора мыши на число - период времени, за который выпало указанное количество осадков.
R24 - Количество осадков - Количество выпавших осадков за 24 часа, мм.
S - Снежный покров - Высота снежного покрова, см. При наведении курсора мыши на число - состояние снежного покрова и степень покрытия местности в баллах.